Change the Weather History Date:

Thursday, February 23, 2012

  Actual Average Record
Temperature  
Mean Temperature 68 °F -  
Max Temperature 73 °F 63 °F 75 °F (2007)
Min Temperature 64 °F 46 °F 33 °F (2009)
Cooling Degree Days 4    
Growing Degree Days 18 (Base 50)    
Moisture  
Dew Point 65 °F    
Average Humidity 94    
Maximum Humidity 100    
Minimum Humidity 78    
Precipitation  
Precipitation 0.00 in - - ()
Sea Level Pressure  
Sea Level Pressure 29.79 in    
Wind  
Wind Speed 10 mph (WSW)    
Max Wind Speed 14 mph    
Max Gust Speed 22 mph    
Visibility 4 miles    
Events Rain    
Averages and records for this station are not official NWS values.
T = Trace of Precipitation, MM = Missing Value Source: NWS Daily Summary

Daily Weather History Graph

Daily Weather History Graph

Search for Another Location

Airport or City:

Trip Planner

Search our weather history database for the weather conditions in past years. The results will help you decide how hot, cold, wet, or windy it might be!

Date:

Astronomy

Feb. 23, 2012 Rise Set
Actual Time 6:19 AM CST 5:40 PM CST
Civil Twilight 5:55 AM CST 6:05 PM CST
Nautical Twilight 5:27 AM CST 6:33 PM CST
Astronomical Twilight 4:59 AM CST 7:01 PM CST
Moon 6:57 AM CST (2/23) 7:32 PM CST (2/23)
Length of Visible Light 12h 09m
Length of Day
11h 21m
Waxing Crescent, 3% of the Moon is Illuminated
Feb 23
Waxing Crescent
Feb 29
First Quarter
Mar 8
Full
Mar 14
Last Quarter
Mar 22
New

Hourly Weather History & Observations

Time (CST) Temp. Dew Point Humidity Pressure Visibility Wind Dir Wind Speed Gust Speed Precip Events Conditions
12:00 AM 66.2 °F 64.4 °F 94% 29.80 in 2.0 mi West 11.5 mph 18.4 mph N/A   Light Drizzle
12:02 AM 66.2 °F 64.4 °F 94% 29.80 in 2.0 mi West 11.5 mph 18.4 mph N/A   Overcast
12:20 AM 66.2 °F 64.4 °F 94% 29.80 in 1.8 mi West 11.5 mph - N/A   Overcast
12:27 AM 66.2 °F 64.4 °F 94% 29.81 in 1.5 mi West 10.4 mph - N/A   Overcast
12:33 AM 66.2 °F 64.4 °F 94% 29.80 in 1.5 mi West 10.4 mph - N/A   Light Drizzle
12:45 AM 66.2 °F 64.4 °F 94% 29.80 in 1.8 mi West 11.5 mph - N/A   Light Drizzle
12:49 AM 66.2 °F 64.4 °F 94% 29.80 in 2.0 mi West 12.7 mph - N/A   Light Drizzle
12:55 AM 65.7 °F 64.8 °F 97% 29.80 in 2.5 mi West 10.4 mph - 0.00 in   Light Drizzle
1:03 AM 66.2 °F 64.4 °F 94% 29.80 in 2.5 mi West 10.4 mph - N/A   Overcast
1:24 AM 66.2 °F 64.4 °F 94% 29.79 in 3.0 mi West 12.7 mph 18.4 mph N/A   Overcast
1:31 AM 66.2 °F 64.4 °F 94% 29.79 in 2.5 mi West 11.5 mph - N/A   Overcast
1:46 AM 66.2 °F 64.4 °F 94% 29.78 in 3.0 mi West 12.7 mph - N/A   Overcast
1:55 AM 65.7 °F 64.8 °F 97% 29.79 in 3.0 mi West 9.2 mph - 0.00 in   Overcast
2:03 AM 66.2 °F 64.4 °F 94% 29.78 in 2.5 mi West 11.5 mph - N/A   Overcast
2:09 AM 66.2 °F 64.4 °F 94% 29.79 in 1.8 mi West 11.5 mph - N/A   Overcast
2:14 AM 66.2 °F 64.4 °F 94% 29.79 in 1.5 mi West 10.4 mph - N/A   Overcast
2:24 AM 66.2 °F 64.4 °F 94% 29.79 in 1.2 mi West 9.2 mph - N/A   Overcast
2:53 AM 66.2 °F 64.4 °F 94% 29.78 in 1.5 mi West 10.4 mph - N/A   Overcast
2:55 AM 65.5 °F 64.8 °F 98% 29.79 in 1.5 mi West 10.4 mph - N/A   Overcast
2:57 AM 66.2 °F 64.4 °F 94% 29.79 in 1.8 mi West 9.2 mph - N/A   Overcast
3:10 AM 66.2 °F 64.4 °F 94% 29.79 in 2.0 mi West 9.2 mph - N/A   Overcast
3:25 AM 66.2 °F 64.4 °F 94% 29.78 in 1.8 mi WSW 9.2 mph 17.3 mph N/A   Overcast
3:32 AM 66.2 °F 64.4 °F 94% 29.78 in 2.0 mi WSW 9.2 mph - N/A   Overcast
3:38 AM 64.4 °F 64.4 °F 100% 29.78 in 1.8 mi WSW 9.2 mph - N/A   Overcast
3:41 AM 64.4 °F 64.4 °F 100% 29.78 in 1.5 mi West 10.4 mph - N/A   Overcast
3:50 AM 66.2 °F 64.4 °F 94% 29.78 in 1.8 mi West 10.4 mph - N/A   Overcast
3:53 AM 66.2 °F 64.4 °F 94% 29.78 in 2.0 mi West 9.2 mph - N/A   Overcast
3:55 AM 65.5 °F 64.8 °F 98% 29.78 in 2.0 mi West 10.4 mph - N/A   Overcast
3:58 AM 66.2 °F 64.4 °F 94% 29.78 in 3.0 mi West 12.7 mph - N/A   Overcast
4:10 AM 66.2 °F 64.4 °F 94% 29.78 in 2.5 mi West 10.4 mph - N/A   Overcast
4:15 AM 66.2 °F 64.4 °F 94% 29.78 in 1.8 mi West 9.2 mph - N/A   Overcast
4:16 AM 66.2 °F 64.4 °F 94% 29.78 in 1.5 mi West 10.4 mph - N/A   Overcast
4:19 AM 66.2 °F 64.4 °F 94% 29.78 in 1.2 mi WSW 9.2 mph - N/A   Overcast
4:22 AM 66.2 °F 64.4 °F 94% 29.78 in 1.0 mi WSW 9.2 mph - N/A   Mist
4:33 AM 66.2 °F 64.4 °F 94% 29.78 in 1.2 mi West 8.1 mph - N/A   Overcast
4:37 AM 66.2 °F 64.4 °F 94% 29.78 in 1.5 mi West 8.1 mph - N/A   Overcast
4:49 AM 66.2 °F 64.4 °F 94% 29.79 in 1.2 mi WSW 9.2 mph - N/A   Overcast
4:53 AM 64.4 °F 64.4 °F 100% 29.78 in 1.0 mi WSW 8.1 mph - N/A   Mist
4:55 AM 65.1 °F 64.4 °F 98% 29.78 in 1.0 mi WSW 8.1 mph - N/A   Mist
4:57 AM 64.4 °F 64.4 °F 100% 29.79 in 1.0 mi WSW 6.9 mph - N/A   Mist
4:58 AM 64.4 °F 64.4 °F 100% 29.79 in 0.8 mi WSW 8.1 mph - N/A   Mist
5:21 AM 64.4 °F 64.4 °F 100% 29.79 in 1.8 mi West 6.9 mph - N/A   Overcast
5:25 AM 66.2 °F 64.4 °F 94% 29.79 in 1.8 mi West 9.2 mph - N/A   Overcast
5:26 AM 66.2 °F 64.4 °F 94% 29.79 in 2.0 mi West 9.2 mph - N/A   Overcast
5:38 AM 66.2 °F 64.4 °F 94% 29.79 in 1.8 mi West 10.4 mph - N/A   Overcast
5:45 AM 66.2 °F 64.4 °F 94% 29.79 in 2.0 mi West 8.1 mph - N/A   Overcast
5:55 AM 65.7 °F 64.9 °F 98% 29.80 in 2.0 mi WSW 9.2 mph - N/A   Overcast
5:58 AM 66.2 °F 64.4 °F 94% 29.80 in 1.8 mi WSW 5.8 mph - N/A   Overcast
6:00 AM 66.2 °F 64.4 °F 94% 29.80 in 1.5 mi WSW 6.9 mph - N/A   Overcast
6:02 AM 66.2 °F 64.4 °F 94% 29.80 in 1.2 mi WSW 6.9 mph - N/A   Overcast
6:05 AM 64.4 °F 64.4 °F 100% 29.80 in 1.0 mi WSW 5.8 mph - N/A   Mist
6:13 AM 64.4 °F 64.4 °F 100% 29.80 in 1.2 mi WSW 5.8 mph - N/A   Overcast
6:17 AM 64.4 °F 64.4 °F 100% 29.80 in 1.5 mi WSW 6.9 mph - N/A   Overcast
6:20 AM 64.4 °F 64.4 °F 100% 29.80 in 1.8 mi WSW 6.9 mph - N/A   Overcast
6:34 AM 64.4 °F 64.4 °F 100% 29.80 in 2.0 mi WSW 6.9 mph - N/A   Overcast
6:46 AM 66.2 °F 64.4 °F 94% 29.81 in 3.0 mi WSW 5.8 mph - N/A   Overcast
6:55 AM 65.3 °F 64.4 °F 97% 29.81 in 3.0 mi WSW 6.9 mph - N/A   Overcast
6:58 AM 66.2 °F 64.4 °F 94% 29.81 in 4.0 mi WSW 8.1 mph - N/A   Overcast
7:26 AM 66.2 °F 64.4 °F 94% 29.81 in 5.0 mi WSW 8.1 mph - N/A   Overcast
7:55 AM 65.8 °F 65.1 °F 98% 29.82 in 5.0 mi SW 10.4 mph - N/A   Overcast
7:57 AM 66.2 °F 64.4 °F 94% 29.82 in 5.0 mi SW 9.2 mph - N/A   Mostly Cloudy
8:06 AM 66.2 °F 66.2 °F 100% 29.82 in 5.0 mi SW 9.2 mph - N/A   Mostly Cloudy
8:27 AM 66.2 °F 66.2 °F 100% 29.83 in 6.0 mi SW 10.4 mph - N/A   Mostly Cloudy
8:55 AM 66.9 °F 65.8 °F 96% 29.83 in 7.0 mi SW 10.4 mph - N/A   Mostly Cloudy
8:59 AM 66.2 °F 66.2 °F 100% 29.82 in 7.0 mi WSW 11.5 mph - N/A   Overcast
9:55 AM 68.0 °F 64.4 °F 88% 29.83 in 7.0 mi SSW 10.4 mph - N/A   Overcast
10:26 AM 69.8 °F 66.2 °F 88% 29.83 in 9.0 mi SSW 11.5 mph - N/A   Overcast
10:57 AM 68.0 °F 66.2 °F 94% 29.82 in 3.0 mi SSW 10.4 mph - N/A Rain Light Rain
11:14 AM 68.0 °F 66.2 °F 94% 29.82 in 4.0 mi South 10.4 mph - N/A   Overcast
11:55 AM 68.0 °F 66.2 °F 94% 29.81 in 6.0 mi SW 10.4 mph - N/A Rain Light Rain
12:30 PM 69.8 °F 68.0 °F 94% 29.80 in 5.0 mi SSW 6.9 mph 17.3 mph N/A   Overcast
12:55 PM 68.7 °F 66.2 °F 92% 29.79 in 7.0 mi South 9.2 mph - 0.00 in   Overcast
1:07 PM 68.0 °F 66.2 °F 94% 29.79 in 8.0 mi South 9.2 mph - N/A   Overcast
1:17 PM 69.8 °F 66.2 °F 88% 29.78 in 9.0 mi SSW 9.2 mph - N/A   Overcast
1:53 PM 73.4 °F 66.2 °F 78% 29.77 in 10.0 mi SW 13.8 mph 21.9 mph N/A   Scattered Clouds
1:55 PM 71.6 °F 66.2 °F 83% 29.77 in 10.0 mi SW 12.7 mph 21.9 mph N/A   Mostly Cloudy
2:27 PM 71.6 °F 66.2 °F 83% 29.76 in 10.0 mi SW 13.8 mph 21.9 mph N/A   Overcast
2:55 PM 71.6 °F 66.2 °F 83% 29.77 in 5.0 mi SW 13.8 mph 21.9 mph N/A   Overcast
3:55 PM 69.8 °F 66.2 °F 88% 29.78 in 5.0 mi SSW 8.1 mph - N/A   Overcast
4:55 PM 69.8 °F 66.2 °F 88% 29.76 in 5.0 mi SSW 8.1 mph - N/A   Overcast
5:27 PM 69.8 °F 66.2 °F 88% 29.75 in 5.0 mi SW 9.2 mph - N/A   Overcast
5:55 PM 69.8 °F 66.2 °F 88% 29.76 in 5.0 mi SSW 8.1 mph - N/A   Overcast
6:55 PM 68.0 °F 66.2 °F 94% 29.76 in 5.0 mi SSW 9.2 mph - N/A   Overcast
7:55 PM 68.0 °F 66.2 °F 94% 29.79 in 6.0 mi SSW 6.9 mph - N/A   Overcast
8:04 PM 68.0 °F 66.2 °F 94% 29.79 in 7.0 mi SSW 6.9 mph - N/A   Overcast
8:16 PM 68.0 °F 66.2 °F 94% 29.79 in 7.0 mi SSW 6.9 mph - N/A   Overcast
8:38 PM 68.0 °F 66.2 °F 94% 29.80 in 7.0 mi SSW 8.1 mph - N/A   Overcast
8:45 PM 68.0 °F 66.2 °F 94% 29.79 in 7.0 mi SSW 8.1 mph - N/A   Overcast
8:55 PM 68.0 °F 66.0 °F 93% 29.80 in 7.0 mi SSW 8.1 mph - N/A   Overcast
9:02 PM 68.0 °F 66.2 °F 94% 29.80 in 7.0 mi SSW 10.4 mph - N/A   Overcast
9:11 PM 68.0 °F 66.2 °F 94% 29.80 in 7.0 mi SSW 6.9 mph - N/A   Overcast
9:43 PM 68.0 °F 66.2 °F 94% 29.80 in 8.0 mi SW 8.1 mph - N/A   Scattered Clouds
9:45 PM 68.0 °F 66.2 °F 94% 29.78 in 7.0 mi SSW 8.1 mph - N/A   Mostly Cloudy
9:57 PM 68.0 °F 65.7 °F 92% 29.79 in 8.0 mi SSW 8.1 mph - N/A   Mostly Cloudy
10:59 PM 68.0 °F 65.5 °F 92% 29.81 in 9.0 mi SSW 10.4 mph 17.3 mph N/A   Overcast
11:38 PM 68.0 °F 64.4 °F 88% 29.79 in 8.0 mi SSW 10.4 mph - N/A   Overcast
11:56 PM 67.8 °F 65.1 °F 91% 29.79 in 8.0 mi SSW 9.2 mph - N/A   Overcast